Location: Fuller Park
(33.8686°N, 117.9781°W)
Time: 01:22:18
(UTC+00:00)

Cosmos 1125 Rocket - Pass Details

Date: 03 August 2024
Orbit: 756 x 776 km, 74.0° (Epoch: 08 September)

Event Time Altitude Azimuth Distance (km) Brightness Sun altitude
Rises 12:29:16 0° 334° (NNW) 3,224 6.8 -7.7°
Reaches altitude 10° 12:31:45 10° 328° (NNW) 2,292 5.9 -7.2°
Maximum altitude 12:36:37 42° 259° (WSW) 1,074 3.9 -6.3°
Drops below altitude 10° 12:41:26 10° 189° (S) 2,272 5.6 -5.4°
Sets 12:43:53 0° 182° (S) 3,193 6.4 -5.0°
